GW6561 Weather Reports


time (UTC)temp
F
wind
direction
speed
knots
gust
knots
rain 1hr
in
rain 24hr
in
rain mn
in
humidity
%
barometer
mb
20260504081737 40 205 0.0 0.0 0.00 0.00 0.00 77 1016.5
20260504081233 40 218 7.8 7.8 0.00 0.00 0.00 75 1016.4
20260504080730 41 49 7.8 7.8 0.00 0.00 0.00 76 1016.5
20260504080226 41 261 5.2 5.2 0.00 0.00 0.00 77 1016.6
20260504070154 41 171 0.0 0.0 0.00 0.00 0.00 79 1016.5
20260504060119 42 267 0.0 0.0 0.00 0.00 0.00 70 1016.7
20260504050548 44 220 0.0 0.0 0.00 0.00 0.00 71 1016.6
20260504045541 44 265 0.0 5.2 0.00 0.00 0.00 64 1016.7
20260504045037 44 240 0.0 0.0 0.00 0.00 0.00 68 1016.8
20260504044535 43 245 0.0 0.0 0.00 0.00 0.00 68 1016.7
20260504044031 43 230 0.0 0.0 0.00 0.00 0.00 70 1016.5
20260504043528 45 211 6.1 9.6 0.00 0.00 0.00 71 1016.6
20260504043026 45 277 7.0 9.6 0.00 0.00 0.00 62 1016.5
20260504042523 44 284 7.0 7.8 0.00 0.00 0.00 64 1016.5
20260504042020 44 293 0.0 5.2 0.00 0.00 0.00 70 1016.6
20260504041515 44 224 0.0 0.0 0.00 0.00 0.00 72 1016.9
20260504041011 44 224 0.0 0.0 0.00 0.00 0.00 72 1016.7
20260504040509 44 200 5.2 7.8 0.00 0.00 0.00 69 1016.5
20260504040006 44 254 0.0 0.0 0.00 0.00 0.00 65 1016.4
20260504035503 44 224 0.0 5.2 0.00 0.00 0.00 71 1016.4
20260504034959 44 230 0.0 0.0 0.00 0.00 0.00 69 1016.3
20260504034457 44 230 0.0 0.0 0.00 0.00 0.00 69 1016.4
20260504033954 44 267 0.0 0.0 0.00 0.00 0.00 69 1016.3
20260504033451 44 304 0.0 0.0 0.00 0.00 0.00 70 1016.3
20260504032948 44 226 0.0 6.1 0.00 0.00 0.00 70 1016.4
20260504032445 44 264 0.0 0.0 0.00 0.00 0.00 67 1016.3
20260504031942 45 290 0.0 7.0 0.00 0.00 0.00 71 1016.3
20260504031439 45 242 0.0 5.2 0.00 0.00 0.00 66 1016.2
20260504030935 45 277 0.0 0.0 0.00 0.00 0.00 64 1016.1
20260504030433 44 220 0.0 0.0 0.00 0.00 0.00 69 1016.0
20260504025928 45 220 0.0 0.0 0.00 0.00 0.00 74 1016.1
20260504025426 45 233 5.2 6.1 0.00 0.00 0.00 71 1015.9
20260504024923 46 167 0.0 0.0 0.00 0.00 0.00 66 1016.1
20260504024420 46 233 0.0 0.0 0.00 0.00 0.00 67 1015.9
20260504023917 46 233 0.0 0.0 0.00 0.00 0.00 72 1016.2
20260504023413 46 233 0.0 0.0 0.00 0.00 0.00 71 1016.1
20260504022908 46 233 0.0 0.0 0.00 0.00 0.00 68 1016.1
20260504022405 46 233 0.0 0.0 0.00 0.00 0.00 66 1016.3
20260504021902 47 325 0.0 0.0 0.00 0.00 0.00 67 1016.2
20260504021359 47 245 0.0 0.0 0.00 0.00 0.00 59 1016.1
20260504020856 47 254 0.0 6.1 0.00 0.00 0.00 59 1016.2
20260504020353 47 250 0.0 0.0 0.00 0.00 0.00 62 1016.3
20260504015849 47 250 0.0 0.0 0.00 0.00 0.00 64 1016.3
20260504015345 48 240 0.0 0.0 0.00 0.00 0.00 62 1016.2
20260504014841 48 348 0.0 0.0 0.00 0.00 0.00 62 1016.0
20260504014337 48 254 0.0 5.2 0.00 0.00 0.00 63 1016.2
20260504013835 48 250 0.0 0.0 0.00 0.00 0.00 55 1016.0
20260504013333 48 249 0.0 5.2 0.00 0.00 0.00 59 1015.8
20260504012830 48 245 0.0 7.0 0.00 0.00 0.00 56 1016.0
20260504012327 48 264 0.0 0.0 0.00 0.00 0.00 54 1016.0
20260504011825 48 223 0.0 0.0 0.00 0.00 0.00 52 1015.8
20260504011321 49 250 0.0 5.2 0.00 0.00 0.00 52 1015.8
20260504010817 49 220 0.0 5.2 0.00 0.00 0.00 50 1015.7
20260504010312 49 244 5.2 7.8 0.00 0.00 0.00 50 1015.9
20260504005809 49 270 0.0 6.1 0.00 0.00 0.00 50 1015.8
20260504005306 49 245 0.0 5.2 0.00 0.00 0.00 51 1015.7
20260504004804 49 241 5.2 8.7 0.00 0.00 0.00 50 1015.7
20260504004301 50 236 6.1 6.1 0.00 0.00 0.00 49 1015.6
20260504003757 50 250 0.0 6.1 0.00 0.00 0.00 48 1015.6
20260504003255 50 238 0.0 6.1 0.00 0.00 0.00 49 1015.4
20260504002751 51 236 0.0 6.1 0.00 0.00 0.00 48 1015.6
20260504002248 51 233 0.0 6.1 0.00 0.00 0.00 48 1015.4
20260504001746 52 230 0.0 6.1 0.00 0.00 0.00 47 1015.3
20260504001243 52 239 0.0 0.0 0.00 0.00 0.00 46 1015.1
20260504000739 52 232 0.0 5.2 0.00 0.00 0.00 46 1015.2
20260504000236 53 231 0.0 7.0 0.00 0.00 0.00 47 1015.1
20260503235735 53 239 0.0 6.1 0.00 0.00 0.00 46 1015.0
20260503235231 54 253 7.0 7.0 0.00 0.00 0.00 45 1015.0
20260503234729 54 238 0.0 7.0 0.00 0.00 0.00 44 1014.9
20260503234227 55 229 6.1 7.8 0.00 0.00 0.00 46 1015.0
20260503233724 55 269 0.0 5.2 0.00 0.00 0.00 43 1014.9
20260503233219 56 156 0.0 7.8 0.00 0.00 0.00 43 1014.9
20260503232716 56 245 0.0 7.8 0.00 0.00 0.00 42 1015.0
20260503232213 57 264 7.0 9.6 0.00 0.00 0.00 41 1015.0
20260503231712 57 224 7.0 11.3 0.00 0.00 0.00 40 1014.9
20260503231208 57 265 11.3 13.9 0.00 0.00 0.00 39 1014.8
20260503230704 57 264 7.0 7.8 0.00 0.00 0.00 40 1015.1
20260503230202 57 282 0.0 9.6 0.00 0.00 0.00 40 1014.8
20260503225659 58 270 6.1 9.6 0.00 0.00 0.00 40 1014.7
20260503225159 58 275 6.1 8.7 0.00 0.00 0.00 38 1014.8
20260503224657 58 262 7.8 11.3 0.00 0.00 0.00 39 1014.7
20260503224154 58 227 0.0 10.4 0.00 0.00 0.00 38 1014.9
20260503223652 58 266 9.6 16.5 0.00 0.00 0.00 36 1014.8
20260503223149 58 263 6.1 10.4 0.00 0.00 0.00 38 1014.6
20260503222646 58 203 7.8 9.6 0.00 0.00 0.00 40 1014.6
20260503222143 58 278 8.7 16.5 0.00 0.00 0.00 35 1014.7
20260503221642 59 285 10.4 11.3 0.00 0.00 0.00 38 1014.8
20260503221139 59 290 5.2 13.0 0.00 0.00 0.00 35 1014.8
20260503220635 59 264 9.6 14.8 0.00 0.00 0.00 37 1014.7
20260503220132 59 256 8.7 13.9 0.00 0.00 0.00 36 1014.6
20260503215630 59 279 7.8 11.3 0.00 0.00 0.00 36 1015.0
20260503215126 59 299 7.8 14.8 0.00 0.00 0.00 35 1014.9
20260503214625 59 292 9.6 16.5 0.00 0.00 0.00 36 1014.7
20260503214120 59 270 6.1 15.6 0.00 0.00 0.00 35 1014.9
20260503213620 60 280 7.8 17.4 0.00 0.00 0.00 33 1014.7
20260503213116 60 260 7.8 18.2 0.00 0.00 0.00 36 1014.8
20260503212613 59 310 0.0 19.1 0.00 0.00 0.00 34 1014.6
20260503212111 60 266 9.6 19.1 0.00 0.00 0.00 32 1014.6
20260503211608 60 273 11.3 18.2 0.00 0.00 0.00 34 1014.6
20260503211103 60 311 9.6 16.5 0.00 0.00 0.00 37 1014.6
20260503210600 59 270 14.8 16.5 0.00 0.00 0.00 35 1014.6
20260503210056 59 265 8.7 13.9 0.00 0.00 0.00 34 1014.6
20260503205552 59 287 14.8 17.4 0.00 0.00 0.00 34 1014.6
20260503205049 59 274 8.7 17.4 0.00 0.00 0.00 33 1014.6
20260503204546 59 307 0.0 17.4 0.00 0.00 0.00 34 1014.6
20260503204043 60 258 7.0 11.3 0.00 0.00 0.00 37 1014.6
20260503203540 59 277 5.2 15.6 0.00 0.00 0.00 36 1014.9
20260503203037 60 23 6.1 15.6 0.00 0.00 0.00 36 1014.8
20260503202535 60 285 6.1 22.6 0.00 0.00 0.00 33 1014.9
20260503202033 60 290 5.2 19.1 0.00 0.00 0.00 34 1014.7
20260503201531 60 299 20.0 27.8 0.00 0.00 0.00 31 1014.8
20260503201028 59 268 7.0 15.6 0.00 0.00 0.00 33 1014.9
20260503200524 59 270 0.0 13.0 0.00 0.00 0.00 38 1014.9
20260503200021 59 287 10.4 17.4 0.00 0.00 0.00 33 1015.1
20260503195518 59 275 11.3 20.0 0.00 0.00 0.00 35 1015.1
20260503195015 59 175 0.0 17.4 0.00 0.00 0.00 36 1015.0
20260503194512 58 293 5.2 14.8 0.00 0.00 0.00 35 1015.0
20260503194011 59 275 5.2 18.2 0.00 0.00 0.00 35 1015.4
20260503193508 59 275 16.5 21.7 0.00 0.00 0.00 32 1015.3
20260503193004 58 290 15.6 15.6 0.00 0.00 0.00 34 1015.4
20260503192500 58 293 6.1 21.7 0.00 0.00 0.00 34 1015.5
20260503191955 59 269 10.4 14.8 0.00 0.00 0.00 32 1015.5
20260503191453 59 278 10.4 17.4 0.00 0.00 0.00 36 1015.5
20260503190949 58 265 7.0 17.4 0.00 0.00 0.00 35 1015.5
20260503190447 58 166 7.0 23.5 0.00 0.00 0.00 34 1015.9
20260503185944 58 265 14.8 23.5 0.00 0.00 0.00 33 1015.6
20260503185440 59 277 13.0 20.0 0.00 0.00 0.00 32 1015.7
20260503184940 58 277 5.2 17.4 0.00 0.00 0.00 37 1015.7
20260503184436 59 269 13.9 24.3 0.00 0.00 0.00 36 1015.9
20260503183933 59 172 5.2 22.6 0.00 0.00 0.00 39 1015.9
20260503183429 58 299 15.6 18.2 0.00 0.00 0.00 33 1016.1
20260503182926 59 274 7.8 20.0 0.00 0.00 0.00 35 1016.2
20260503182425 60 298 18.2 19.1 0.00 0.00 0.00 33 1016.0
20260503181922 61 270 7.0 18.2 0.00 0.00 0.00 32 1016.1
20260503181419 60 260 9.6 18.2 0.00 0.00 0.00 40 1015.9
20260503180915 59 259 13.9 17.4 0.00 0.00 0.00 36 1016.1
20260503180414 61 276 7.8 20.0 0.00 0.00 0.00 38 1016.2
20260503175910 60 21 10.4 17.4 0.00 0.00 0.00 38 1016.1
20260503175409 58 20 5.2 19.1 0.00 0.00 0.00 40 1016.2
20260503174904 59 287 14.8 26.1 0.00 0.00 0.00 32 1016.2
20260503174403 59 214 7.0 29.5 0.00 0.00 0.00 37 1016.2
20260503173902 58 293 10.4 19.1 0.00 0.00 0.00 34 1016.2
20260503173359 58 277 14.8 24.3 0.00 0.00 0.00 39 1016.4
20260503172856 59 278 16.5 22.6 0.00 0.00 0.00 35 1016.3
20260503172353 57 278 15.6 22.6 0.00 0.00 0.00 38 1016.2
20260503171849 57 255 16.5 18.2 0.00 0.00 0.00 43 1016.4
20260503171346 57 282 16.5 22.6 0.00 0.00 0.00 36 1016.5
20260503170844 57 289 10.4 21.7 0.00 0.00 0.00 37 1016.5
20260503170340 57 270 9.6 19.1 0.00 0.00 0.00 37 1016.6
20260503150732 53 171 7.0 25.2 0.00 0.00 0.00 40 1017.3
20260503150228 52 302 19.1 27.8 0.00 0.00 0.00 38 1017.2
20260503140153 49 236 11.3 24.3 0.00 0.00 0.00 45 1017.6
20260503131122 47 170 8.7 38.2 0.00 0.00 0.00 51 1017.6
20260503130620 47 274 11.3 25.2 0.00 0.00 0.00 51 1017.6
20260503130117 47 194 7.0 19.1 0.00 0.00 0.00 52 1017.6
20260503110510 42 285 7.8 13.9 0.00 0.00 0.00 62 1016.5